Location: Conway Observatory, Indiana
(41.2910°N, 87.4210°W)
Time: 18:26:52
(UTC-05:00)

Hubble Space Telescope - Visible Passes

Search period start: 17 August 2017 00:00
Search period end: 27 August 2017 00:00
Orbit: 538 x 542 km, 28.5° (Epoch: 17 August)

Date Brightness Start Highest point End Pass type
(mag) Time Alt. Az. Time Alt. Az. Time Alt. Az.
19 Aug 3.2 04:12:56 11° SSE 04:12:56 11° SSE 04:13:24 10° SSE visible
20 Aug 3.3 04:03:25 10° SSE 04:03:25 10° SSE 04:03:36 10° SSE visible
21 Aug 2.9 05:30:22 10° SSW 05:32:09 12° S 05:33:55 10° SSE visible
22 Aug 2.9 05:20:28 10° SSW 05:21:54 12° S 05:23:19 10° S visible
23 Aug 3.0 05:10:56 10° SSW 05:11:38 10° SSW 05:12:21 10° S visible
